TimeEDT,TemperatureF,Dew PointF,Humidity,Sea Level PressureIn,VisibilityMPH,Wind Direction,Wind SpeedMPH,Gust SpeedMPH,PrecipitationIn,Events,Conditions,WindDirDegrees,DateUTC
12:53 AM,73.9,68.0,82,30.17,10.0,Calm,Calm,-,0.00,,Partly Cloudy,0,2013-07-03 04:53:00
1:28 AM,73.4,68.0,83,30.18,10.0,Calm,Calm,-,N/A,,Mostly Cloudy,0,2013-07-03 05:28:00
1:53 AM,73.9,68.0,82,30.18,10.0,Calm,Calm,-,N/A,,Mostly Cloudy,0,2013-07-03 05:53:00
2:53 AM,73.9,68.0,82,30.17,10.0,SSW,3.5,-,N/A,,Overcast,210,2013-07-03 06:53:00
3:45 AM,73.4,68.0,83,30.17,10.0,Variable,4.6,-,N/A,,Mostly Cloudy,0,2013-07-03 07:45:00
3:53 AM,73.9,68.0,82,30.17,10.0,Variable,3.5,-,N/A,,Scattered Clouds,0,2013-07-03 07:53:00
4:53 AM,73.9,66.9,79,30.18,10.0,South,3.5,-,N/A,,Overcast,190,2013-07-03 08:53:00
5:53 AM,73.9,66.9,79,30.19,10.0,South,5.8,-,N/A,,Overcast,190,2013-07-03 09:53:00
6:26 AM,73.4,66.2,78,30.20,10.0,South,4.6,-,N/A,,Overcast,180,2013-07-03 10:26:00
6:53 AM,73.9,66.9,79,30.20,10.0,Variable,3.5,-,N/A,,Overcast,0,2013-07-03 10:53:00
7:17 AM,73.4,66.2,78,30.21,10.0,Calm,Calm,-,N/A,,Overcast,0,2013-07-03 11:17:00
7:50 AM,73.4,68.0,83,30.22,10.0,SSW,4.6,-,N/A,,Mostly Cloudy,210,2013-07-03 11:50:00
7:53 AM,73.9,68.0,82,30.22,10.0,Calm,Calm,-,0.00,Rain,Light Rain,0,2013-07-03 11:53:00
8:13 AM,73.4,68.0,83,30.23,10.0,SSW,3.5,-,0.00,Rain,Light Rain,200,2013-07-03 12:13:00
8:53 AM,73.9,69.1,85,30.23,10.0,Variable,3.5,-,0.00,,Overcast,0,2013-07-03 12:53:00
9:53 AM,75.9,69.1,79,30.23,10.0,SSW,5.8,-,0.00,,Overcast,200,2013-07-03 13:53:00
10:06 AM,75.2,69.8,83,30.23,10.0,Variable,6.9,-,N/A,,Overcast,0,2013-07-03 14:06:00
10:37 AM,77.0,69.8,78,30.24,10.0,Variable,4.6,-,N/A,,Overcast,0,2013-07-03 14:37:00
10:53 AM,75.0,69.1,82,30.24,10.0,Variable,6.9,-,0.00,Rain,Light Rain,0,2013-07-03 14:53:00
11:06 AM,73.4,69.8,88,30.24,2.0,SSW,5.8,-,0.02,Rain,Rain,200,2013-07-03 15:06:00
11:14 AM,73.4,69.8,88,30.24,3.0,South,4.6,-,0.03,Rain,Light Rain,190,2013-07-03 15:14:00
11:53 AM,75.0,71.1,87,30.22,10.0,Calm,Calm,-,0.04,Rain,Light Rain,0,2013-07-03 15:53:00
12:13 PM,75.2,69.8,83,30.23,10.0,South,3.5,-,0.00,,Overcast,190,2013-07-03 16:13:00
12:42 PM,77.0,71.6,83,30.23,10.0,Variable,4.6,-,0.01,Rain,Light Rain,0,2013-07-03 16:42:00
12:53 PM,77.0,71.1,82,30.23,10.0,SSW,5.8,-,0.01,Rain,Light Rain,210,2013-07-03 16:53:00
1:46 PM,78.8,71.6,78,30.22,10.0,Calm,Calm,-,0.00,,Overcast,0,2013-07-03 17:46:00
1:53 PM,80.1,71.1,74,30.22,10.0,SSW,4.6,-,0.00,,Overcast,210,2013-07-03 17:53:00
2:53 PM,81.0,69.1,67,30.20,10.0,SW,4.6,-,N/A,,Partly Cloudy,230,2013-07-03 18:53:00
3:53 PM,84.9,69.1,59,30.19,10.0,Variable,5.8,-,N/A,,Partly Cloudy,0,2013-07-03 19:53:00
4:53 PM,84.0,69.1,61,30.18,10.0,Variable,3.5,-,N/A,,Scattered Clouds,0,2013-07-03 20:53:00
5:53 PM,84.0,70.0,63,30.17,10.0,Variable,4.6,-,N/A,,Partly Cloudy,0,2013-07-03 21:53:00
6:53 PM,82.0,70.0,67,30.18,10.0,SSW,5.8,-,N/A,,Mostly Cloudy,200,2013-07-03 22:53:00
7:53 PM,81.0,71.1,72,30.19,10.0,Calm,Calm,-,N/A,,Clear,0,2013-07-03 23:53:00
8:53 PM,79.0,71.1,77,30.19,10.0,Calm,Calm,-,N/A,,Clear,0,2013-07-04 00:53:00
9:53 PM,78.1,71.1,79,30.22,10.0,Calm,Calm,-,N/A,,Partly Cloudy,0,2013-07-04 01:53:00
10:53 PM,77.0,70.0,79,30.23,10.0,Calm,Calm,-,N/A,,Clear,0,2013-07-04 02:53:00
11:53 PM,75.9,71.1,85,30.22,10.0,SSW,3.5,-,N/A,,Clear,200,2013-07-04 03:53:00